Year,Month,Day,Hour,Minute,Value (Times are PST for temperature in C)
2010,08,05,00,00,19.80
2010,08,05,00,01,19.80
2010,08,05,00,02,19.80
2010,08,05,00,03,19.80
2010,08,05,00,04,19.80
2010,08,05,00,05,19.80
2010,08,05,00,06,19.80
2010,08,05,00,07,19.80
2010,08,05,00,08,19.80
2010,08,05,00,09,19.70
2010,08,05,00,10,19.70
2010,08,05,00,11,19.70
2010,08,05,00,12,19.70
2010,08,05,00,13,19.70
2010,08,05,00,14,19.70
2010,08,05,00,15,19.70
2010,08,05,00,16,19.70
2010,08,05,00,17,19.70
2010,08,05,00,18,19.60
2010,08,05,00,19,19.60
2010,08,05,00,20,19.60
2010,08,05,00,21,19.60
2010,08,05,00,22,19.60
2010,08,05,00,23,19.60
2010,08,05,00,24,19.60
2010,08,05,00,25,19.50
2010,08,05,00,26,19.50
2010,08,05,00,27,19.50
2010,08,05,00,28,19.40
2010,08,05,00,29,19.30
2010,08,05,00,30,19.30
2010,08,05,00,31,19.30
2010,08,05,00,32,19.30
2010,08,05,00,33,19.20
2010,08,05,00,34,19.20
2010,08,05,00,35,19.20
2010,08,05,00,36,19.10
2010,08,05,00,37,19.10
2010,08,05,00,38,19.10
2010,08,05,00,39,19.10
2010,08,05,00,40,19.10
2010,08,05,00,41,19.10
2010,08,05,00,42,19.10
2010,08,05,00,43,19.10
2010,08,05,00,44,19.00
2010,08,05,00,45,19.00
2010,08,05,00,46,19.00
2010,08,05,00,47,19.00
2010,08,05,00,48,19.00
2010,08,05,00,49,18.90
2010,08,05,00,50,18.90
2010,08,05,00,51,18.90
2010,08,05,00,52,18.90
2010,08,05,00,53,18.90
2010,08,05,00,54,18.90
2010,08,05,00,55,18.80
2010,08,05,00,56,18.80
2010,08,05,00,57,18.80
2010,08,05,00,58,18.80
2010,08,05,00,59,18.80
2010,08,05,01,00,18.80
2010,08,05,01,01,18.80
2010,08,05,01,02,18.70
2010,08,05,01,03,18.70
2010,08,05,01,04,18.70
2010,08,05,01,05,18.70
2010,08,05,01,06,18.70
2010,08,05,01,07,18.70
2010,08,05,01,08,18.70
2010,08,05,01,09,18.70
2010,08,05,01,10,18.70
2010,08,05,01,11,18.70
2010,08,05,01,12,18.70
2010,08,05,01,13,18.70
2010,08,05,01,14,18.70
2010,08,05,01,15,18.70
2010,08,05,01,16,18.70
2010,08,05,01,17,18.70
2010,08,05,01,18,18.70
2010,08,05,01,19,18.70
2010,08,05,01,20,18.70
2010,08,05,01,21,18.60
2010,08,05,01,22,18.60
2010,08,05,01,23,18.60
2010,08,05,01,24,18.60
2010,08,05,01,25,18.60
2010,08,05,01,26,18.60
2010,08,05,01,27,18.60
2010,08,05,01,28,18.70
2010,08,05,01,29,18.70
2010,08,05,01,30,18.70
2010,08,05,01,31,18.70
2010,08,05,01,32,18.70
2010,08,05,01,33,18.60
2010,08,05,01,34,18.60
2010,08,05,01,35,18.50
2010,08,05,01,36,18.50
2010,08,05,01,37,18.50
2010,08,05,01,38,18.40
2010,08,05,01,39,18.40
2010,08,05,01,40,18.40
2010,08,05,01,41,18.40
2010,08,05,01,42,18.40
2010,08,05,01,43,18.40
2010,08,05,01,44,18.40
2010,08,05,01,45,18.40
2010,08,05,01,46,18.40
2010,08,05,01,47,18.40
2010,08,05,01,48,18.40
2010,08,05,01,49,18.40
2010,08,05,01,50,18.40
2010,08,05,01,51,18.40
2010,08,05,01,52,18.40
2010,08,05,01,53,18.30
2010,08,05,01,54,18.30
2010,08,05,01,55,18.30
2010,08,05,01,56,18.30
2010,08,05,01,57,18.30
2010,08,05,01,58,18.30
2010,08,05,01,59,18.30
2010,08,05,02,00,18.30
2010,08,05,02,01,18.30
2010,08,05,02,02,18.30
2010,08,05,02,03,18.30
2010,08,05,02,04,18.30
2010,08,05,02,05,18.30
2010,08,05,02,06,18.30
2010,08,05,02,07,18.30
2010,08,05,02,08,18.30
2010,08,05,02,09,18.30
2010,08,05,02,10,18.40
2010,08,05,02,11,18.40
2010,08,05,02,12,18.40
2010,08,05,02,13,18.40
2010,08,05,02,14,18.40
2010,08,05,02,15,18.40
2010,08,05,02,16,18.40
2010,08,05,02,17,18.40
2010,08,05,02,18,18.40
2010,08,05,02,19,18.40
2010,08,05,02,20,18.30
2010,08,05,02,21,18.30
2010,08,05,02,22,18.40
2010,08,05,02,23,18.40
2010,08,05,02,24,18.40
2010,08,05,02,25,18.40
2010,08,05,02,26,18.40
2010,08,05,02,27,18.30
2010,08,05,02,28,18.30
2010,08,05,02,29,18.30
2010,08,05,02,30,18.30
2010,08,05,02,31,18.30
2010,08,05,02,32,18.30
2010,08,05,02,33,18.30
2010,08,05,02,34,18.20
2010,08,05,02,35,18.20
2010,08,05,02,36,18.20
2010,08,05,02,37,18.10
2010,08,05,02,38,18.10
2010,08,05,02,39,18.10
2010,08,05,02,40,18.10
2010,08,05,02,41,18.00
2010,08,05,02,42,18.00
2010,08,05,02,43,17.90
2010,08,05,02,44,17.90
2010,08,05,02,45,17.90
2010,08,05,02,46,17.90
2010,08,05,02,47,17.90
2010,08,05,02,48,17.80
2010,08,05,02,49,17.80
2010,08,05,02,50,17.90
2010,08,05,02,51,17.90
2010,08,05,02,52,17.90
2010,08,05,02,53,17.90
2010,08,05,02,54,17.90
2010,08,05,02,55,17.90
2010,08,05,02,56,17.90
2010,08,05,02,57,17.90
2010,08,05,02,58,17.90
2010,08,05,02,59,17.90
2010,08,05,03,00,18.00
2010,08,05,03,01,18.00
2010,08,05,03,02,18.00
2010,08,05,03,03,18.00
2010,08,05,03,04,18.00
2010,08,05,03,05,18.00
2010,08,05,03,06,18.00
2010,08,05,03,07,18.00
2010,08,05,03,08,18.00
2010,08,05,03,09,18.00
2010,08,05,03,10,18.10
2010,08,05,03,11,18.10
2010,08,05,03,12,18.10
2010,08,05,03,13,18.10
2010,08,05,03,14,18.10
2010,08,05,03,15,18.10
2010,08,05,03,16,18.10
2010,08,05,03,17,18.10
2010,08,05,03,18,18.10
2010,08,05,03,19,18.10
2010,08,05,03,20,18.10
2010,08,05,03,21,18.10
2010,08,05,03,22,18.10
2010,08,05,03,23,18.10
2010,08,05,03,24,18.10
2010,08,05,03,25,18.10
2010,08,05,03,26,18.10
2010,08,05,03,27,18.10
2010,08,05,03,28,18.20
2010,08,05,03,29,18.20
2010,08,05,03,30,18.20
2010,08,05,03,31,18.20
2010,08,05,03,32,18.30
2010,08,05,03,33,18.30
2010,08,05,03,34,18.30
2010,08,05,03,35,18.40
2010,08,05,03,36,18.40
2010,08,05,03,37,18.40
2010,08,05,03,38,18.40
2010,08,05,03,39,18.40
2010,08,05,03,40,18.40
2010,08,05,03,41,18.40
2010,08,05,03,42,18.40
2010,08,05,03,43,18.40
2010,08,05,03,44,18.40
2010,08,05,03,45,18.40
2010,08,05,03,46,18.40
2010,08,05,03,47,18.40
2010,08,05,03,48,18.40
2010,08,05,03,49,18.40
2010,08,05,03,50,18.40
2010,08,05,03,51,18.40
2010,08,05,03,52,18.50
2010,08,05,03,53,18.50
2010,08,05,03,54,18.50
2010,08,05,03,55,18.50
2010,08,05,03,56,18.60
2010,08,05,03,57,18.50
2010,08,05,03,58,18.50
2010,08,05,03,59,18.50
2010,08,05,04,00,18.50
2010,08,05,04,01,18.50
2010,08,05,04,02,18.50
2010,08,05,04,03,18.50
2010,08,05,04,04,18.50
2010,08,05,04,05,18.50
2010,08,05,04,06,18.50
2010,08,05,04,07,18.50
2010,08,05,04,08,18.50
2010,08,05,04,09,18.50
2010,08,05,04,10,18.50
2010,08,05,04,11,18.50
2010,08,05,04,12,18.50
2010,08,05,04,13,18.50
2010,08,05,04,14,18.40
2010,08,05,04,15,18.40
2010,08,05,04,16,18.40
2010,08,05,04,17,18.40
2010,08,05,04,18,18.40
2010,08,05,04,19,18.40
2010,08,05,04,20,18.40
2010,08,05,04,21,18.40
2010,08,05,04,22,18.40
2010,08,05,04,23,18.40
2010,08,05,04,24,18.40
2010,08,05,04,25,18.40
2010,08,05,04,26,18.40
2010,08,05,04,27,18.40
2010,08,05,04,28,18.40
2010,08,05,04,29,18.40
2010,08,05,04,30,18.40
2010,08,05,04,31,18.40
2010,08,05,04,32,18.30
2010,08,05,04,33,18.30
2010,08,05,04,34,18.30
2010,08,05,04,35,18.30
2010,08,05,04,36,18.30
2010,08,05,04,37,18.30
2010,08,05,04,38,18.30
2010,08,05,04,39,18.30
2010,08,05,04,40,18.30
2010,08,05,04,41,18.30
2010,08,05,04,42,18.30
2010,08,05,04,43,18.30
2010,08,05,04,44,18.30
2010,08,05,04,45,18.30
2010,08,05,04,46,18.30
2010,08,05,04,47,18.30
2010,08,05,04,48,18.40
2010,08,05,04,49,18.40
2010,08,05,04,50,18.40
2010,08,05,04,51,18.50
2010,08,05,04,52,18.50
2010,08,05,04,53,18.60
2010,08,05,04,54,18.60
2010,08,05,04,55,18.60
2010,08,05,04,56,18.60
2010,08,05,04,57,18.60
2010,08,05,04,58,18.60
2010,08,05,04,59,18.60
2010,08,05,05,00,18.50
2010,08,05,05,01,18.50
2010,08,05,05,02,18.40
2010,08,05,05,03,18.40
2010,08,05,05,04,18.30
2010,08,05,05,05,18.30
2010,08,05,05,06,18.30
2010,08,05,05,07,18.20
2010,08,05,05,08,18.20
2010,08,05,05,09,18.20
2010,08,05,05,10,18.20
2010,08,05,05,11,18.20
2010,08,05,05,12,18.30
2010,08,05,05,13,18.30
2010,08,05,05,14,18.30
2010,08,05,05,15,18.30
2010,08,05,05,16,18.30
2010,08,05,05,17,18.30
2010,08,05,05,18,18.30
2010,08,05,05,19,18.20
2010,08,05,05,20,18.20
2010,08,05,05,21,18.20
2010,08,05,05,22,18.20
2010,08,05,05,23,18.20
2010,08,05,05,24,18.20
2010,08,05,05,25,18.20
2010,08,05,05,26,18.20
2010,08,05,05,27,18.10
2010,08,05,05,28,18.10
2010,08,05,05,29,18.10
2010,08,05,05,30,18.10
2010,08,05,05,31,18.10
2010,08,05,05,32,18.10
2010,08,05,05,33,18.10
2010,08,05,05,34,18.10
2010,08,05,05,35,18.10
2010,08,05,05,36,18.10
2010,08,05,05,37,18.10
2010,08,05,05,38,18.10
2010,08,05,05,39,18.10
2010,08,05,05,40,18.10
2010,08,05,05,41,18.00
2010,08,05,05,42,18.00
2010,08,05,05,43,18.00
2010,08,05,05,44,18.00
2010,08,05,05,45,17.90
2010,08,05,05,46,17.90
2010,08,05,05,47,17.90
2010,08,05,05,48,17.90
2010,08,05,05,49,17.80
2010,08,05,05,50,17.80
2010,08,05,05,51,17.80
2010,08,05,05,52,17.80
2010,08,05,05,53,17.80
2010,08,05,05,54,17.70
2010,08,05,05,55,17.70
2010,08,05,05,56,17.70
2010,08,05,05,57,17.70
2010,08,05,05,58,17.70
2010,08,05,05,59,17.70
2010,08,05,06,00,17.70
2010,08,05,06,01,17.80
2010,08,05,06,02,17.80
2010,08,05,06,03,17.80
2010,08,05,06,04,17.80
2010,08,05,06,05,17.90
2010,08,05,06,06,17.90
2010,08,05,06,07,18.00
2010,08,05,06,08,18.00
2010,08,05,06,09,18.00
2010,08,05,06,10,18.10
2010,08,05,06,11,18.10
2010,08,05,06,12,18.10
2010,08,05,06,13,18.10
2010,08,05,06,14,18.10
2010,08,05,06,15,18.00
2010,08,05,06,16,18.00
2010,08,05,06,17,18.00
2010,08,05,06,18,18.00
2010,08,05,06,19,18.00
2010,08,05,06,20,18.00
2010,08,05,06,21,18.00
2010,08,05,06,22,18.00
2010,08,05,06,23,18.00
2010,08,05,06,24,18.00
2010,08,05,06,25,18.00
2010,08,05,06,26,18.00
2010,08,05,06,27,18.00
2010,08,05,06,28,18.00
2010,08,05,06,29,18.00
2010,08,05,06,30,17.90
2010,08,05,06,31,17.90
2010,08,05,06,32,17.90
2010,08,05,06,33,17.90
2010,08,05,06,34,17.90
2010,08,05,06,35,17.90
2010,08,05,06,36,17.90
2010,08,05,06,37,17.90
2010,08,05,06,38,17.90
2010,08,05,06,39,17.90
2010,08,05,06,40,17.90
2010,08,05,06,41,17.90
2010,08,05,06,42,17.90
2010,08,05,06,43,17.90
2010,08,05,06,44,17.90
2010,08,05,06,45,17.90
2010,08,05,06,46,18.00
2010,08,05,06,47,18.00
2010,08,05,06,48,17.90
2010,08,05,06,49,17.90
2010,08,05,06,50,18.00
2010,08,05,06,51,18.00
2010,08,05,06,52,17.90
2010,08,05,06,53,18.00
2010,08,05,06,54,18.00
2010,08,05,06,55,18.00
2010,08,05,06,56,18.00
2010,08,05,06,57,18.00
2010,08,05,06,58,18.00
2010,08,05,06,59,18.10
2010,08,05,07,00,18.10
2010,08,05,07,01,18.10
2010,08,05,07,02,18.10
2010,08,05,07,03,18.10
2010,08,05,07,04,18.10
2010,08,05,07,05,18.10
2010,08,05,07,06,18.20
2010,08,05,07,07,18.20
2010,08,05,07,08,18.20
2010,08,05,07,09,18.20
2010,08,05,07,10,18.30
2010,08,05,07,11,18.30
2010,08,05,07,12,18.30
2010,08,05,07,13,18.30
2010,08,05,07,14,18.30
2010,08,05,07,15,18.30
2010,08,05,07,16,18.30
2010,08,05,07,17,18.30
2010,08,05,07,18,18.30
2010,08,05,07,19,18.30
2010,08,05,07,20,18.20
2010,08,05,07,21,18.20
2010,08,05,07,22,18.20
2010,08,05,07,23,18.20
2010,08,05,07,24,18.10
2010,08,05,07,25,18.10
2010,08,05,07,26,18.10
2010,08,05,07,27,18.10
2010,08,05,07,28,18.10
2010,08,05,07,29,18.10
2010,08,05,07,30,18.10
2010,08,05,07,31,18.10
2010,08,05,07,32,18.10
2010,08,05,07,33,18.20
2010,08,05,07,34,18.20
2010,08,05,07,35,18.20
2010,08,05,07,36,18.20
2010,08,05,07,37,18.20
2010,08,05,07,38,18.20
2010,08,05,07,39,18.20
2010,08,05,07,40,18.20
2010,08,05,07,41,18.20
2010,08,05,07,42,18.20
2010,08,05,07,43,18.20
2010,08,05,07,44,18.20
2010,08,05,07,45,18.20
2010,08,05,07,46,18.20
2010,08,05,07,47,18.30
2010,08,05,07,48,18.30
2010,08,05,07,49,18.30
2010,08,05,07,50,18.30
2010,08,05,07,51,18.30
2010,08,05,07,52,18.30
2010,08,05,07,53,18.40
2010,08,05,07,54,18.40
2010,08,05,07,55,18.50
2010,08,05,07,56,18.50
2010,08,05,07,57,18.50
2010,08,05,07,58,18.60
2010,08,05,07,59,18.60
2010,08,05,08,00,18.70
2010,08,05,08,01,18.70
2010,08,05,08,02,18.70
2010,08,05,08,03,18.80
2010,08,05,08,04,18.80
2010,08,05,08,05,18.80
2010,08,05,08,06,18.80
2010,08,05,08,07,18.80
2010,08,05,08,08,18.90
2010,08,05,08,09,18.90
2010,08,05,08,10,18.90
2010,08,05,08,11,18.90
2010,08,05,08,12,19.00
2010,08,05,08,13,19.00
2010,08,05,08,14,19.10
2010,08,05,08,15,19.10
2010,08,05,08,16,19.10
2010,08,05,08,17,19.10
2010,08,05,08,18,19.10
2010,08,05,08,19,19.10
2010,08,05,08,20,19.10
2010,08,05,08,21,19.10
2010,08,05,08,22,19.10
2010,08,05,08,23,19.20
2010,08,05,08,24,19.20
2010,08,05,08,25,19.20
2010,08,05,08,26,19.20
2010,08,05,08,27,19.20
2010,08,05,08,28,19.20
2010,08,05,08,29,19.20
2010,08,05,08,30,19.30
2010,08,05,08,31,19.30
2010,08,05,08,32,19.30
2010,08,05,08,33,19.30
2010,08,05,08,34,19.30
2010,08,05,08,35,19.30
2010,08,05,08,36,19.30
2010,08,05,08,37,19.30
2010,08,05,08,38,19.30
2010,08,05,08,39,19.30
2010,08,05,08,40,19.30
2010,08,05,08,41,19.30
2010,08,05,08,42,19.30
2010,08,05,08,43,19.40
2010,08,05,08,44,19.40
2010,08,05,08,45,19.40
2010,08,05,08,46,19.50
2010,08,05,08,47,19.50
2010,08,05,08,48,19.50
2010,08,05,08,49,19.50
2010,08,05,08,50,19.50
2010,08,05,08,51,19.50
2010,08,05,08,52,19.50
2010,08,05,08,53,19.50
2010,08,05,08,54,19.50
2010,08,05,08,55,19.50
2010,08,05,08,56,19.50
2010,08,05,08,57,19.60
2010,08,05,08,58,19.60
2010,08,05,08,59,19.60
2010,08,05,09,00,19.60
2010,08,05,09,01,19.70
2010,08,05,09,02,19.70
2010,08,05,09,03,19.70
2010,08,05,09,04,19.70
2010,08,05,09,05,19.80
2010,08,05,09,06,19.80
2010,08,05,09,07,19.80
2010,08,05,09,08,19.90
2010,08,05,09,09,19.90
2010,08,05,09,10,19.90
2010,08,05,09,11,20.00
2010,08,05,09,12,20.00
2010,08,05,09,13,20.10
2010,08,05,09,14,20.10
2010,08,05,09,15,20.20
2010,08,05,09,16,20.20
2010,08,05,09,17,20.20
2010,08,05,09,18,20.30
2010,08,05,09,19,20.30
2010,08,05,09,20,20.30
2010,08,05,09,21,20.30
2010,08,05,09,22,20.40
2010,08,05,09,23,20.40
2010,08,05,09,24,20.50
2010,08,05,09,25,20.50
2010,08,05,09,26,20.50
2010,08,05,09,27,20.60
2010,08,05,09,28,20.60
2010,08,05,09,29,20.60
2010,08,05,09,30,20.60
2010,08,05,09,31,20.70
2010,08,05,09,32,20.70
2010,08,05,09,33,20.70
2010,08,05,09,34,20.80
2010,08,05,09,35,20.80
2010,08,05,09,36,20.80
2010,08,05,09,37,20.80
2010,08,05,09,38,20.80
2010,08,05,09,39,20.80
2010,08,05,09,40,20.80
2010,08,05,09,41,20.80
2010,08,05,09,42,20.80
2010,08,05,09,43,20.80
2010,08,05,09,44,20.80
2010,08,05,09,45,20.80
2010,08,05,09,46,20.80
2010,08,05,09,47,20.80
2010,08,05,09,48,20.80
2010,08,05,09,49,20.80
2010,08,05,09,50,20.80
2010,08,05,09,51,20.80
2010,08,05,09,52,20.80
2010,08,05,09,53,20.80
2010,08,05,09,54,20.80
2010,08,05,09,55,20.80
2010,08,05,09,56,20.80
2010,08,05,09,57,20.80
2010,08,05,09,58,20.80
2010,08,05,09,59,20.90
2010,08,05,10,00,20.90
2010,08,05,10,01,21.00
2010,08,05,10,02,21.00
2010,08,05,10,03,21.10
2010,08,05,10,04,21.10
2010,08,05,10,05,21.20
2010,08,05,10,06,21.20
2010,08,05,10,07,21.20
2010,08,05,10,08,21.20
2010,08,05,10,09,21.20
2010,08,05,10,10,21.20
2010,08,05,10,11,21.20
2010,08,05,10,12,21.20
2010,08,05,10,13,21.20
2010,08,05,10,14,21.20
2010,08,05,10,15,21.20
2010,08,05,10,16,21.20
2010,08,05,10,17,21.10
2010,08,05,10,18,21.10
2010,08,05,10,19,21.20
2010,08,05,10,20,21.20
2010,08,05,10,21,21.20
2010,08,05,10,22,21.20
2010,08,05,10,23,21.20
2010,08,05,10,24,21.20
2010,08,05,10,25,21.30
2010,08,05,10,26,21.30
2010,08,05,10,27,21.30
2010,08,05,10,28,21.30
2010,08,05,10,29,21.40
2010,08,05,10,30,21.40
2010,08,05,10,31,21.40
2010,08,05,10,32,21.40
2010,08,05,10,33,21.50
2010,08,05,10,34,21.50
2010,08,05,10,35,21.50
2010,08,05,10,36,21.60
2010,08,05,10,37,21.60
2010,08,05,10,38,21.70
2010,08,05,10,39,21.70
2010,08,05,10,40,21.80
2010,08,05,10,41,21.80
2010,08,05,10,42,21.80
2010,08,05,10,43,21.80
2010,08,05,10,44,21.80
2010,08,05,10,45,21.70
2010,08,05,10,46,21.70
2010,08,05,10,47,21.70
2010,08,05,10,48,21.80
2010,08,05,10,49,21.80
2010,08,05,10,50,21.80
2010,08,05,10,51,21.80
2010,08,05,10,52,21.80
2010,08,05,10,53,21.80
2010,08,05,10,54,21.80
2010,08,05,10,55,21.80
2010,08,05,10,56,21.80
2010,08,05,10,57,21.80
2010,08,05,10,58,21.80
2010,08,05,10,59,21.80
2010,08,05,11,00,21.80
2010,08,05,11,01,21.80
2010,08,05,11,02,21.90
2010,08,05,11,03,21.90
2010,08,05,11,04,22.00
2010,08,05,11,05,22.00
2010,08,05,11,06,22.10
2010,08,05,11,07,22.10
2010,08,05,11,08,22.20
2010,08,05,11,09,22.20
2010,08,05,11,10,22.30
2010,08,05,11,11,22.40
2010,08,05,11,12,22.40
2010,08,05,11,13,22.50
2010,08,05,11,14,22.50
2010,08,05,11,15,22.60
2010,08,05,11,16,22.60
2010,08,05,11,17,22.70
2010,08,05,11,18,22.70
2010,08,05,11,19,22.80
2010,08,05,11,20,22.80
2010,08,05,11,21,22.80
2010,08,05,11,22,22.80
2010,08,05,11,23,22.80
2010,08,05,11,24,22.90
2010,08,05,11,25,22.90
2010,08,05,11,26,22.90
2010,08,05,11,27,23.00
2010,08,05,11,28,23.10
2010,08,05,11,29,23.10
2010,08,05,11,30,23.20
2010,08,05,11,31,23.20
2010,08,05,11,32,23.30
2010,08,05,11,33,23.30
2010,08,05,11,34,23.40
2010,08,05,11,35,23.40
2010,08,05,11,36,23.40
2010,08,05,11,37,23.40
2010,08,05,11,38,23.50
2010,08,05,11,39,23.40
2010,08,05,11,40,23.40
2010,08,05,11,41,23.40
2010,08,05,11,42,23.30
2010,08,05,11,43,23.30
2010,08,05,11,44,23.20
2010,08,05,11,45,23.20
2010,08,05,11,46,23.10
2010,08,05,11,47,23.00
2010,08,05,11,48,22.90
2010,08,05,11,49,22.90
2010,08,05,11,50,22.90
2010,08,05,11,51,23.00
2010,08,05,11,52,23.00
2010,08,05,11,53,22.90
2010,08,05,11,54,22.90
2010,08,05,11,55,22.80
2010,08,05,11,56,22.70
2010,08,05,11,57,22.60
2010,08,05,11,58,22.60
2010,08,05,11,59,22.60
2010,08,05,12,00,22.60
2010,08,05,12,01,22.60
2010,08,05,12,02,22.60
2010,08,05,12,03,22.70
2010,08,05,12,04,22.70
2010,08,05,12,05,22.70
2010,08,05,12,06,22.80
2010,08,05,12,07,22.90
2010,08,05,12,08,22.90
2010,08,05,12,09,23.00
2010,08,05,12,10,23.10
2010,08,05,12,11,23.10
2010,08,05,12,12,23.10
2010,08,05,12,13,23.20
2010,08,05,12,14,23.20
2010,08,05,12,15,23.20
2010,08,05,12,16,23.20
2010,08,05,12,17,23.20
2010,08,05,12,18,23.20
2010,08,05,12,19,23.20
2010,08,05,12,20,23.10
2010,08,05,12,21,23.10
2010,08,05,12,22,23.10
2010,08,05,12,23,23.10
2010,08,05,12,24,23.10
2010,08,05,12,25,23.20
2010,08,05,12,26,23.20
2010,08,05,12,27,23.20
2010,08,05,12,28,23.30
2010,08,05,12,29,23.30
2010,08,05,12,30,23.40
2010,08,05,12,31,23.40
2010,08,05,12,32,23.40
2010,08,05,12,33,23.40
2010,08,05,12,34,23.40
2010,08,05,12,35,23.50
2010,08,05,12,36,23.50
2010,08,05,12,37,23.50
2010,08,05,12,38,23.50
2010,08,05,12,39,23.40
2010,08,05,12,40,23.30
2010,08,05,12,41,23.20
2010,08,05,12,42,23.00
2010,08,05,12,43,22.70
2010,08,05,12,44,22.40
2010,08,05,12,45,22.30
2010,08,05,12,46,22.10
2010,08,05,12,47,21.90
2010,08,05,12,48,21.80
2010,08,05,12,49,21.80
2010,08,05,12,50,21.70
2010,08,05,12,51,21.60
2010,08,05,12,52,21.50
2010,08,05,12,53,21.50
2010,08,05,12,54,21.40
2010,08,05,12,55,21.40
2010,08,05,12,56,21.40
2010,08,05,12,57,21.40
2010,08,05,12,58,21.40
2010,08,05,12,59,21.40
2010,08,05,13,00,21.30
2010,08,05,13,01,21.30
2010,08,05,13,02,21.30
2010,08,05,13,03,21.30
2010,08,05,13,04,21.30
2010,08,05,13,05,21.30
2010,08,05,13,06,21.40
2010,08,05,13,07,21.40
2010,08,05,13,08,21.40
2010,08,05,13,09,21.40
2010,08,05,13,10,21.40
2010,08,05,13,11,21.40
2010,08,05,13,12,21.40
2010,08,05,13,13,21.40
2010,08,05,13,14,21.50
2010,08,05,13,15,21.50
2010,08,05,13,16,21.60
2010,08,05,13,17,21.70
2010,08,05,13,18,21.70
2010,08,05,13,19,21.80
2010,08,05,13,20,21.80
2010,08,05,13,21,21.80
2010,08,05,13,22,21.80
2010,08,05,13,23,21.80
2010,08,05,13,24,21.80
2010,08,05,13,25,21.70
2010,08,05,13,26,21.70
2010,08,05,13,27,21.70
2010,08,05,13,28,21.70
2010,08,05,13,29,21.70
2010,08,05,13,30,21.70
2010,08,05,13,31,21.70
2010,08,05,13,32,21.70
2010,08,05,13,33,21.70
2010,08,05,13,34,21.70
2010,08,05,13,35,21.70
2010,08,05,13,36,21.70
2010,08,05,13,37,21.70
2010,08,05,13,38,21.70
2010,08,05,13,39,21.80
2010,08,05,13,40,21.80
2010,08,05,13,41,21.80
2010,08,05,13,42,21.80
2010,08,05,13,43,21.90
2010,08,05,13,44,22.00
2010,08,05,13,45,22.10
2010,08,05,13,46,22.10
2010,08,05,13,47,22.20
2010,08,05,13,48,22.30
2010,08,05,13,49,22.40
2010,08,05,13,50,22.50
2010,08,05,13,51,22.60
2010,08,05,13,52,22.70
2010,08,05,13,53,22.70
2010,08,05,13,54,22.90
2010,08,05,13,55,23.00
2010,08,05,13,56,23.00
2010,08,05,13,57,23.10
2010,08,05,13,58,23.20
2010,08,05,13,59,23.20
2010,08,05,14,00,23.30
2010,08,05,14,01,23.40
2010,08,05,14,02,23.40
2010,08,05,14,03,23.50
2010,08,05,14,04,23.60
2010,08,05,14,05,23.70
2010,08,05,14,06,23.80
2010,08,05,14,07,23.80
2010,08,05,14,08,23.90
2010,08,05,14,09,23.90
2010,08,05,14,10,23.90
2010,08,05,14,11,24.00
2010,08,05,14,12,24.00
2010,08,05,14,13,23.90
2010,08,05,14,14,23.70
2010,08,05,14,15,23.30
2010,08,05,14,16,23.00
2010,08,05,14,17,22.80
2010,08,05,14,18,22.50
2010,08,05,14,19,22.40
2010,08,05,14,20,22.20
2010,08,05,14,21,22.10
2010,08,05,14,22,22.00
2010,08,05,14,23,21.90
2010,08,05,14,24,21.90
2010,08,05,14,25,21.80
2010,08,05,14,26,21.80
2010,08,05,14,27,21.80
2010,08,05,14,28,21.80
2010,08,05,14,29,21.80
2010,08,05,14,30,21.80
2010,08,05,14,31,21.80
2010,08,05,14,32,21.80
2010,08,05,14,33,21.80
2010,08,05,14,34,21.80
2010,08,05,14,35,21.80
2010,08,05,14,36,21.80
2010,08,05,14,37,21.80
2010,08,05,14,38,21.70
2010,08,05,14,39,21.70
2010,08,05,14,40,21.60
2010,08,05,14,41,21.60
2010,08,05,14,42,21.60
2010,08,05,14,43,21.60
2010,08,05,14,44,21.60
2010,08,05,14,45,21.60
2010,08,05,14,46,21.60
2010,08,05,14,47,21.50
2010,08,05,14,48,21.50
2010,08,05,14,49,21.60
2010,08,05,14,50,21.50
2010,08,05,14,51,21.50
2010,08,05,14,52,21.50
2010,08,05,14,53,21.50
2010,08,05,14,54,21.50
2010,08,05,14,55,21.50
2010,08,05,14,56,21.50
2010,08,05,14,57,21.40
2010,08,05,14,58,21.50
2010,08,05,14,59,21.50
2010,08,05,15,00,21.50
2010,08,05,15,01,21.50
2010,08,05,15,02,21.50
2010,08,05,15,03,21.50
2010,08,05,15,04,21.60
2010,08,05,15,05,21.60
2010,08,05,15,06,21.60
2010,08,05,15,07,21.60
2010,08,05,15,08,21.70
2010,08,05,15,09,21.70
2010,08,05,15,10,21.70
2010,08,05,15,11,21.80
2010,08,05,15,12,21.80
2010,08,05,15,13,21.80
2010,08,05,15,14,21.90
2010,08,05,15,15,21.90
2010,08,05,15,16,21.90
2010,08,05,15,17,22.00
2010,08,05,15,18,22.00
2010,08,05,15,19,22.00
2010,08,05,15,20,22.00
2010,08,05,15,21,22.00
2010,08,05,15,22,22.00
2010,08,05,15,23,22.00
2010,08,05,15,24,22.00
2010,08,05,15,25,22.10
2010,08,05,15,26,22.10
2010,08,05,15,27,22.00
2010,08,05,15,28,22.00
2010,08,05,15,29,22.00
2010,08,05,15,30,22.00
2010,08,05,15,31,22.00
2010,08,05,15,32,22.00
2010,08,05,15,33,21.90
2010,08,05,15,34,21.90
2010,08,05,15,35,21.90
2010,08,05,15,36,21.90
2010,08,05,15,37,21.80
2010,08,05,15,38,21.80
2010,08,05,15,39,21.80
2010,08,05,15,40,21.80
2010,08,05,15,41,21.80
2010,08,05,15,42,21.80
2010,08,05,15,43,21.80
2010,08,05,15,44,21.90
2010,08,05,15,45,22.00
2010,08,05,15,46,22.10
2010,08,05,15,47,22.10
2010,08,05,15,48,22.10
2010,08,05,15,49,22.10
2010,08,05,15,50,22.10
2010,08,05,15,51,22.10
2010,08,05,15,52,22.00
2010,08,05,15,53,22.00
2010,08,05,15,54,21.90
2010,08,05,15,55,21.90
2010,08,05,15,56,21.90
2010,08,05,15,57,21.90
2010,08,05,15,58,21.90
2010,08,05,15,59,21.90
2010,08,05,16,00,21.90
2010,08,05,16,01,21.90
2010,08,05,16,02,22.00
2010,08,05,16,03,22.00
2010,08,05,16,04,22.00
2010,08,05,16,05,22.00
2010,08,05,16,06,22.00
2010,08,05,16,07,21.90
2010,08,05,16,08,22.00
2010,08,05,16,09,22.00
2010,08,05,16,10,22.00
2010,08,05,16,11,22.00
2010,08,05,16,12,22.00
2010,08,05,16,13,22.00
2010,08,05,16,14,22.00
2010,08,05,16,15,22.00
2010,08,05,16,16,22.00
2010,08,05,16,17,22.00
2010,08,05,16,18,22.00
2010,08,05,16,19,22.10
2010,08,05,16,20,22.10
2010,08,05,16,21,22.00
2010,08,05,16,22,22.00
2010,08,05,16,23,22.00
2010,08,05,16,24,22.00
2010,08,05,16,25,22.00
2010,08,05,16,26,22.10
2010,08,05,16,27,22.00
2010,08,05,16,28,22.10
2010,08,05,16,29,22.10
2010,08,05,16,30,22.10
2010,08,05,16,31,22.10
2010,08,05,16,32,22.20
2010,08,05,16,33,22.30
2010,08,05,16,34,22.30
2010,08,05,16,35,22.30
2010,08,05,16,36,22.30
2010,08,05,16,37,22.30
2010,08,05,16,38,22.30
2010,08,05,16,39,22.40
2010,08,05,16,40,22.40
2010,08,05,16,41,22.50
2010,08,05,16,42,22.50
2010,08,05,16,43,22.50
2010,08,05,16,44,22.60
2010,08,05,16,45,22.60
2010,08,05,16,46,22.60
2010,08,05,16,47,22.60
2010,08,05,16,48,22.60
2010,08,05,16,49,22.60
2010,08,05,16,50,22.50
2010,08,05,16,51,22.50
2010,08,05,16,52,22.50
2010,08,05,16,53,22.50
2010,08,05,16,54,22.40
2010,08,05,16,55,22.50
2010,08,05,16,56,22.50
2010,08,05,16,57,22.50
2010,08,05,16,58,22.50
2010,08,05,16,59,22.50
2010,08,05,17,00,22.40
2010,08,05,17,01,22.40
2010,08,05,17,02,22.40
2010,08,05,17,03,22.30
2010,08,05,17,04,22.30
2010,08,05,17,05,22.30
2010,08,05,17,06,22.30
2010,08,05,17,07,22.30
2010,08,05,17,08,22.30
2010,08,05,17,09,22.30
2010,08,05,17,10,22.30
2010,08,05,17,11,22.30
2010,08,05,17,12,22.30
2010,08,05,17,13,22.30
2010,08,05,17,14,22.30
2010,08,05,17,15,22.30
2010,08,05,17,16,22.30
2010,08,05,17,17,22.30
2010,08,05,17,18,22.30
2010,08,05,17,19,22.40